Snowfall_Accumulation
0.9 0.8 0.8 0.6 0.8 0.6 0.7 0.5 0.4 0.4 0.5 0.6 0.3 0.3 0.3 0.2 0.2 0.2 0.5 0.5 0.5 0.4 0.4 0.2 0.3 0.4 0.5 0.6 0.4 0.3 0.3 0.7 1.4 0.6 0.4 0.2 0.2 0.3 0.2 0.1 0.1 0.1 0.1
1.1 0.9 0.7 0.6 0.7 0.7 0.7 0.7 0.7 0.7 0.6 0.4 0.6 0.4 0.4 0.2 0.2 0.2 0.3 0.4 0.5 0.5 0.5 0.2 0.3 0.4 0.5 0.6 0.8 0.3 0.3 0.5 1.3 1.7 0.9 0.9 0.5 0.5 0.4 0.5 0.5 0.4 0.3
1.4 1.4 1.2 0.7 0.6 0.6 0.9 0.7 0.5 0.7 0.6 0.7 0.7 0.7 0.8 0.4 0.3 0.3 0.3 0.4 0.5 0.6 0.4 0.3 0.4 0.5 0.6 0.7 0.6 0.4 0.6 0.7 1.4 2.0 1.1 0.7 0.7 0.4 0.3 0.3 0.3 0.4 0.2
1.5 1.5 1.6 1.5 0.8 0.8 0.9 0.8 0.6 0.6 0.7 0.7 0.9 0.9 0.8 0.8 0.5 0.6 0.5 0.6 0.6 0.6 0.4 0.3 0.3 0.4 0.8 1.2 1.3 1.3 1.6 1.5 1.6 2.1 2.1 1.5 1.4 0.7 0.8 0.8 0.8 0.6 0.4
1.2 1.2 1.4 1.6 1.1 1.0 0.9 0.9 1.1 0.9 0.9 0.8 0.9 1.0 1.0 0.9 0.7 0.7 0.8 0.9 0.9 0.8 0.6 0.6 0.6 0.7 0.7 1.1 1.7 2.1 1.9 2.4 3.1 3.6 3.4 2.3 1.6 1.1 1.0 1.1 1.1 0.9 0.8
1.4 1.4 1.5 1.7 1.2 1.3 1.3 1.2 1.1 1.5 1.4 1.0 1.1 1.1 1.1 0.8 0.7 0.8 1.1 1.5 1.3 1.3 1.3 1.1 1.1 1.0 0.8 1.1 1.3 1.5 2.6 4.2 4.9 5.3 4.7 3.3 1.8 1.3 1.2 1.6 2.2 2.7 2.2
1.7 1.3 1.3 1.6 1.5 1.4 1.6 2.0 1.6 1.8 1.8 1.5 1.1 1.0 1.3 1.0 0.6 0.9 1.5 1.8 2.1 1.7 1.8 1.5 1.3 1.2 1.2 1.1 1.3 1.5 2.0 2.7 3.6 4.3 4.2 2.7 1.8 1.5 2.5 3.6 3.7 4.0 2.8
1.8 1.5 1.3 1.4 1.7 1.7 2.2 2.7 3.0 2.6 2.7 2.7 2.2 2.0 1.8 1.5 1.0 1.3 1.8 2.1 1.9 1.6 1.3 1.2 1.2 0.9 1.0 1.6 2.4 3.0 2.0 1.6 1.5 1.6 2.0 1.6 1.6 1.6 3.1 4.9 4.8 3.6 1.6
2.8 2.4 2.4 2.3 2.4 3.0 3.2 3.5 3.8 3.4 3.2 3.5 2.9 2.8 2.5 1.9 1.1 1.2 1.8 2.3 2.1 1.6 1.4 1.1 1.2 1.2 1.4 2.9 4.3 4.5 2.3 1.1 0.8 1.0 1.4 1.4 1.4 1.5 1.9 4.1 5.6 6.7 5.1
3.6 3.1 2.5 2.8 3.0 2.9 3.3 3.4 4.0 4.4 3.4 3.3 3.3 2.5 2.0 1.8 1.2 1.5 1.7 2.3 2.2 1.8 1.7 1.2 1.3 1.7 2.5 4.3 5.1 4.7 3.4 1.6 1.7 1.5 1.0 0.7 0.6 0.5 0.9 3.1 7.4 12.3 9.9
4.4 3.3 3.0 2.6 3.1 3.0 2.7 3.2 3.5 3.8 3.6 2.9 2.4 1.8 1.5 1.2 0.9 1.1 1.7 2.6 3.1 3.1 2.5 1.4 1.1 1.9 3.3 4.1 4.0 3.2 3.1 3.7 3.1 2.1 1.4 1.0 0.9 0.9 0.9 1.3 3.6 10.4 13.9
4.9 4.0 3.9 3.6 3.7 3.1 2.8 2.9 2.9 2.9 2.7 2.7 2.2 1.9 1.4 1.2 1.0 1.2 1.7 2.6 3.6 4.1 3.7 2.0 1.7 2.8 3.4 2.7 2.2 2.1 3.1 3.3 2.9 3.0 2.8 2.2 2.3 2.1 2.1 2.0 2.1 3.4 6.5
5.4 5.1 4.5 4.0 4.1 3.5 3.4 3.1 2.8 2.6 2.9 3.2 2.9 2.7 2.3 1.5 1.2 1.3 1.8 2.5 3.2 3.5 3.2 2.9 3.0 2.8 2.6 1.9 1.8 2.4 2.5 3.2 4.2 5.3 5.1 4.1 3.0 3.1 2.9 3.5 3.2 3.5 4.4
5.5 5.8 5.3 5.1 5.0 4.3 3.4 3.5 3.6 4.1 4.1 4.3 3.8 3.7 3.2 2.3 1.9 1.8 2.5 2.6 2.8 3.0 3.3 3.0 2.6 2.0 2.2 2.4 2.4 2.8 3.3 3.8 5.5 6.7 6.0 4.8 4.2 4.8 5.2 6.4 7.9 7.9 8.8
6.0 6.1 5.9 5.8 6.2 5.5 5.6 5.2 5.1 5.1 5.4 6.1 5.4 4.9 4.8 4.8 3.4 4.2 4.9 4.8 5.1 5.0 5.3 4.1 3.2 3.3 3.0 3.2 3.1 3.0 3.6 4.3 5.4 6.0 6.4 6.6 6.2 6.9 7.9 8.6 10.6 11.5 12.2
6.3 6.2 6.4 6.5 6.8 6.0 6.1 6.3 5.1 4.6 3.9 4.1 4.0 4.8 4.9 4.9 4.8 5.0 5.2 5.3 5.6 5.3 5.6 5.7 4.8 4.5 4.7 4.2 4.4 4.1 4.4 4.9 5.9 7.6 8.2 8.7 9.4 9.9 10.7 10.7 12.2 13.8 13.1
6.8 6.6 6.9 6.8 6.9 7.1 6.2 6.1 6.7 5.4 3.8 3.5 3.5 3.7 4.4 4.5 4.9 5.1 5.4 5.2 4.5 4.1 5.3 6.2 5.8 5.6 5.6 5.4 5.8 5.7 6.0 5.8 7.3 9.4 10.4 11.1 11.8 12.1 12.9 13.6 13.7 13.9 12.6
5.8 6.4 6.5 6.9 7.2 6.9 6.6 6.1 5.9 6.1 5.9 5.3 4.5 3.8 3.8 3.7 4.0 4.5 4.7 4.3 4.3 3.9 4.8 5.7 5.8 6.1 6.2 6.5 6.9 7.6 7.8 7.9 9.0 10.5 11.5 12.1 13.7 15.2 15.4 14.7 14.0 13.8 13.0
5.7 6.1 6.3 6.5 6.7 6.9 7.3 6.2 6.4 6.4 6.2 5.7 5.4 5.6 4.8 4.0 4.0 4.2 4.4 5.1 5.8 6.0 5.8 5.4 5.5 6.0 7.0 7.7 8.3 9.0 9.8 10.9 11.8 13.6 14.0 14.3 15.1 17.3 17.6 14.9 13.8 12.5 12.0
5.5 5.9 6.2 6.2 6.6 6.9 7.2 7.1 7.3 6.7 6.5 6.0 6.0 6.5 6.1 6.2 6.5 5.9 5.8 6.2 6.9 6.9 6.6 6.6 6.2 6.4 7.3 8.2 9.1 10.1 11.3 12.4 13.0 14.4 14.9 14.4 15.0 16.5 16.4 14.0 12.3 12.2 11.2
5.1 5.5 5.7 6.0 6.5 6.9 7.4 7.7 7.6 7.7 7.3 7.0 7.0 7.3 7.4 8.3 7.5 7.0 7.2 7.6 7.6 8.4 8.5 8.5 8.1 7.6 8.4 8.9 10.1 11.0 12.3 13.3 13.9 15.4 15.9 15.2 14.7 14.0 12.4 11.7 11.5 11.7 12.2
4.9 5.2 5.7 6.1 6.3 6.9 7.6 8.1 8.1 8.2 7.8 7.6 7.6 7.5 7.2 7.1 6.8 6.9 7.3 7.3 7.4 7.7 8.2 9.3 9.5 9.1 10.3 12.7 14.6 15.6 14.8 14.1 14.4 16.2 16.2 15.0 13.6 12.5 11.8 12.5 12.2 12.4 12.4
4.5 5.0 5.3 5.7 6.2 6.8 7.2 7.3 7.7 8.3 8.3 8.2 8.1 8.2 7.9 7.8 7.1 7.2 7.4 7.7 7.6 7.5 7.3 8.3 9.4 9.0 9.6 11.9 14.6 18.9 20.7 18.5 17.1 18.1 18.8 17.1 14.5 13.4 13.6 14.1 13.1 13.1 12.7
4.4 4.5 5.0 5.3 5.7 6.2 6.7 7.1 7.4 7.8 8.1 8.1 8.1 8.2 8.2 8.2 8.4 8.1 8.0 8.1 7.8 7.7 7.6 8.4 9.4 9.8 9.9 12.1 13.8 15.8 17.5 18.9 21.1 21.4 20.8 20.6 17.9 15.3 15.0 14.8 13.4 12.7 12.5
4.5 4.6 5.0 5.2 5.7 5.9 6.4 6.6 6.9 7.3 7.7 7.7 7.8 7.9 8.1 8.1 7.7 7.9 8.2 8.0 7.8 8.0 7.2 7.8 9.1 10.3 11.0 12.3 13.9 15.3 15.4 16.8 18.7 20.1 20.1 19.5 17.8 15.4 15.0 14.9 13.9 13.1 12.9
4.5 4.6 4.8 5.2 5.5 5.5 6.2 6.5 6.9 7.2 7.6 7.9 8.1 8.0 8.3 8.3 8.3 8.3 8.4 8.7 8.8 8.4 7.9 8.0 8.4 9.7 11.1 12.5 12.8 13.8 14.7 14.5 12.9 13.0 16.2 18.2 17.2 15.0 15.1 15.8 14.5 13.8 13.7